STARLINK-30503, 57975

Orbit data source: Space-Track

STARLINK-30503, 57975 is a payload satellite owned by SpaceX/Seattle (US) in LEO that was launched on Sat, 30 Sep 2023 UTC via an FALCON 9 launch vehicle from the Air Force Eastern Test Range (AFETR). Payload-class satellites include a variety of spacecraft equipped with specific instruments for various scientific and technological missions. These include communications satellites like Starlink; space stations such as the ISS; scientific satellites like the Hubble; Earth observation satellites from companies like Planet Labs, Umbra, and HawkEye 360; GPS; miniature CubeSats for education and research; and military/defense satellites.

Loading next visibility...
Identifier
57975, 2023-151M
Orbit
LEO
Country
Flag of USUS
Related business
Manufacturer
SpaceX/Seattle
Mission
Operational Commercial Communications
Bus & Motor
STARLINK V2M, Unknown motor
Mass
730 kg wet, ~700 kg dry
Launch date (UTC)
2023-09-30 (3 years ago)
Launch vehicle
FALCON 9
Launch site
Air Force Eastern Test Range (AFETR)
Object type
Payload
Rocket body
Debris
Shape & HBR
Box + 2 Pan, 17.7 m
Radar Cross Section
33.884 m², Large (>1 m²)

Expand to show TLE details & history
Last TLE update: 22 hours ago

TLE from 22 hours ago
0 STARLINK-30503
1 57975U 23151M   26192.47502463  .00000485  00000-0  27151-4 0  9993
2 57975  43.0040 357.2537 0001827 277.4940  82.5704 15.27572279154697
Epoch: 2026-07-11T11:24Z
TLE epoch observation values (Epoch: 2026-07-11T11:24:02.128Z)
Latitude
-0°
Longitude
-103.14288°
Altitude
482.686 km
Speed
7.626 km/s
True Right ascension
23h 49m 00s
True Declination
0° 00' 00"
Sunlit
Object was in partial shadow at epoch
Visualization orbit readout
Latitude
Unknown
Longitude
Unknown
Altitude
Unknown
Speed
Unknown
Apparent Right ascension
Unknown
Apparent Declination
Unknown
Sunlit
N/A
Visualization observer readout
Local Sidereal Time
22:00:02
Azimuth
Unknown
Elevation
Unknown
Doppler factor
Unknown
Orbital elements
Apogee altitude
486.271 km
Perigee altitude
483.763 km
Semi-major axis
6,863.154 km
Eccentricity
0.00018
Inclination
43.004°
RAAN
357.2537°
Arg. of periapsis
277.494°
True anomaly
82.59116°
Mean anomaly
82.5704°
Eccentric anomaly
82.58078°
Mean motion
3.81731 °/min
Orbital period
94.31 mins
BSTAR
0.000027151
Loading maneuver chart data...
Computing Atmospheric mass density...
Loading historical data...
Loading historical data...
Loading historical data...
Loading historical data...
Loading historical data...
Loading historical data...
Loading historical data...

Documentation

Showing up to 5 results
|